Starlink 32079

operational
NORAD ID: 60336 Int'l Des: 2024-136 Owner: SPXS Country: US Constellation: starlink
LEOCIRCULAR

关于 Starlink 32079

正在加载描述...

实时位置

正在加载3D地球...

即将过境

高度历史

Altitude vs Time

uPlot chart will show altitude changes over time

两行轨道根数

1 60336U 24136H 25261.13120671 .00001111 00000-0 49632-4 0 9993
2 60336 53.1596 157.2866 0001161 59.0667 301.0447 15.30193749 63242
Epoch: Sep 18, 2025 • Age: 19 hours

当前状态

高度 492.7 km
速度 7.62 km/s
星下点 -49.33°S, 130.76°E
发射日期 Aug 2, 2024
运行时间 1.1 years
类型 internet

技术详情

分类 Payload
质量 730.00 kg
干质量 700.00 kg
总质量 730.00 kg
长度 0.30 m
直径 4.10 m
跨度 29.00 m
形状 Box + pan
制造商 SPXS
平台类型 Starlink V2M
阶段状态 In Orbit
所有者/国家 SPXS/US

大型星座

Loading constellations...